Regional Weather Roundup
Issued by NWS Kansas City/Pleasant Hill, MO

Home | Current Version | Previous Version | Graphics & Text | Print | Product List | Glossary Off
Versions: 1 2 3 4 5 6 7 8 9 10 11 12 13 14 15 16 17 18 19 20 21 22 23 24 25 26 27

000
ASUS43 KEAX 230210
RWREAX

WEATHER ROUNDUP FOR EASTERN KANSAS AND NORTHWEST MISSOURI
NATIONAL WEATHER SERVICE KANSAS CITY/PLEASANT HILL MO
800 PM CST THU FEB 22 2018

KSZ040-057-103>105-MOZ028-029-037-043-230300-
...KANSAS CITY METROPOLITAN AREA...

CITY           SKY/WX    TMP DP  RH WIND       PRES   REMARKS
K.C. INTL      LGT RAIN  33  32  96 S3        30.17S FOG
K.C. DOWNTOWN  LGT RAIN  35  32  88 CALM      30.18S FOG
LEES SUMMIT    MIX PCPN  33  33 100 CALM      30.17S VSB 1
OLATHE - IXD   LGT RAIN  33  33 100 CALM      30.18R FOG
OLATHE - OJC   FOG       32  32 100 CALM      30.16F VSB 1
LAWRENCE       LGT RAIN  33  33 100 NW3       30.19F FOG

$$

MOZ001>008-011>017-020>025-030>033-038>040-044>046-053-054-230300-
...NORTHERN AND CENTRAL MISSOURI...

CITY           SKY/WX    TMP DP  RH WIND       PRES   REMARKS
ST. JOSEPH     CLOUDY    32  32 100 SW3       30.19S FOG
MOSBY          DRIZZLE   34  32  93 E3        30.18F
WARRENSBURG    LGT RAIN  36  34  93 E7        30.18R WCI  30
WHITEMAN AFB   LGT RAIN  37  35  95 SE7       30.12F WCI  31
CLINTON        CLOUDY    37  37 100 SE9       30.18F WCI  31
SEDALIA        CLOUDY    38  38 100 SE13      30.20F WCI  30
WARSAW         NOT AVBL
CHILLICOTHE      N/A     34  33  96 SE5       30.21S WCI  30
KIRKSVILLE     FOG       34  34 100 SE12      30.22F VSB 1/4 WCI  25

$$

MOZ041-047>049-056>058-063>065-088>090-097-230300-
...EASTERN AND SOUTHERN MISSOURI...

CITY           SKY/WX    TMP DP  RH WIND       PRES   REMARKS
ST. LOUIS INTL LGT RAIN  43  43 100 SE9       30.27F VSB 3/4
SPIRIT OF STL  LGT RAIN  42  42 100 E5        30.27F FOG
COLUMBIA       FOG       37  32  82 SE9       30.22S VSB 3/4 WCI  30
JEFFERSON CITY LGT RAIN  39  38  96 E10       30.23F FOG     WCI  32
ROLLA          LGT RAIN  39  39 100 SE9       30.24R FOG     WCI  33
OSAGE BEACH    LGT RAIN  40  39  97 E6        30.21F
SPRINGFIELD    CLOUDY    42  41  96 SE12      30.16F
BRANSON        RAIN      39  39 100 E7        30.18F FOG     WCI  34
JOPLIN         CLOUDY    42  42 100 S6        30.16F
WEST PLAINS    LGT RAIN  42  40  92 E14       30.17F WCI  35

$$

IAZ060-094-KSZ022-034>040-054-083-096-NEZ052-066-093-230300-
...KANSAS...SOUTHEAST NEBRASKA AND IOWA...

CITY           SKY/WX    TMP DP  RH WIND       PRES   REMARKS
TOPEKA         LGT RAIN  33  33 100 CALM      30.18S FOG
MANHATTAN      FRZ RAIN  33  31  92 N3        30.18S FOG
EMPORIA        CLOUDY    32  31  96 E3        30.16F FOG
CHANUTE        CLOUDY    34  34 100 W7        30.18R FOG     WCI  28
WICHITA        FRZ DRZL  32  32 100 CALM      30.16R FOG
OMAHA          FRZ DRZL  32  30  92 SW5       30.21F FOG     WCI  27
LINCOLN        CLOUDY    30  29  96 S3        30.20S FOG
FALLS CITY     FRZ RAIN  31  30  96 SW5       30.20R FOG     WCI  26
LAMONI         CLOUDY    32  30  92 SE8       30.17F FOG     WCI  25
DES MOINES     LGT RAIN  33  31  92 SE8       30.20R FOG     WCI  26

$$





USA.gov is the U.S. government's official web portal to all federal, state and local government web resources and services.